| time (UTC) | temp C | wind direction | speed KPH | gust KPH | rain 1hr cm | rain 24hr cm | rain mn cm | humidity % | barometer mb |
| 20260510220532 | 19 | 253 | 11.3 | 11.3 | 0.00 | 0.00 | 0.00 | 39 | 1007.7 |
| 20260510220028 | 19 | 253 | 11.3 | 11.3 | 0.00 | 0.00 | 0.00 | 39 | 1007.7 |
| 20260510215525 | 19 | 240 | 3.2 | 3.2 | 0.00 | 0.00 | 0.00 | 36 | 1007.3 |
| 20260510215023 | 20 | 258 | 12.9 | 14.5 | 0.00 | 0.00 | 0.00 | 39 | 1007.3 |
| 20260510214520 | 19 | 254 | 3.2 | 3.2 | 0.00 | 0.00 | 0.00 | 38 | 1007.3 |
| 20260510214016 | 18 | 261 | 8.0 | 9.7 | 0.00 | 0.00 | 0.00 | 39 | 1007.0 |
| 20260510213514 | 19 | 117 | 9.7 | 9.7 | 0.00 | 0.00 | 0.00 | 39 | 1007.0 |
| 20260510213009 | 19 | 257 | 9.7 | 11.3 | 0.00 | 0.00 | 0.00 | 38 | 1006.7 |
| 20260510212506 | 18 | 253 | 4.8 | 4.8 | 0.00 | 0.00 | 0.00 | 39 | 1006.7 |
| 20260510212003 | 19 | 268 | 9.7 | 9.7 | 0.00 | 0.00 | 0.00 | 39 | 1006.7 |
| 20260510211500 | 19 | 257 | 4.8 | 4.8 | 0.00 | 0.00 | 0.00 | 40 | 1007.0 |
| 20260510211000 | 20 | 268 | 6.4 | 6.4 | 0.00 | 0.00 | 0.00 | 38 | 1006.7 |
| 20260510210456 | 19 | 264 | 6.4 | 6.4 | 0.00 | 0.00 | 0.00 | 38 | 1007.0 |
| 20260510205950 | 19 | 260 | 6.4 | 8.0 | 0.00 | 0.00 | 0.00 | 37 | 1007.0 |
| 20260510205445 | 19 | 256 | 11.3 | 12.9 | 0.00 | 0.00 | 0.00 | 39 | 1006.7 |
| 20260510204941 | 18 | 100 | 6.4 | 6.4 | 0.00 | 0.00 | 0.00 | 39 | 1007.0 |
| 20260510204438 | 19 | 258 | 17.7 | 19.3 | 0.00 | 0.00 | 0.00 | 40 | 1007.0 |
| 20260510203933 | 19 | 253 | 4.8 | 4.8 | 0.00 | 0.00 | 0.00 | 40 | 1006.7 |
| 20260510203432 | 20 | 258 | 6.4 | 6.4 | 0.00 | 0.00 | 0.00 | 39 | 1007.0 |
| 20260510202926 | 20 | 256 | 6.4 | 6.4 | 0.00 | 0.00 | 0.00 | 40 | 1007.0 |
| 20260510202422 | 19 | 263 | 1.6 | 1.6 | 0.00 | 0.00 | 0.00 | 39 | 1007.0 |
| 20260510201919 | 18 | 254 | 4.8 | 4.8 | 0.00 | 0.00 | 0.00 | 42 | 1006.3 |
| 20260510201416 | 19 | 259 | 4.8 | 6.4 | 0.00 | 0.00 | 0.00 | 41 | 1007.0 |
| 20260510200912 | 19 | 112 | 4.8 | 4.8 | 0.00 | 0.00 | 0.00 | 42 | 1007.0 |
| 20260510200412 | 18 | 275 | 3.2 | 3.2 | 0.00 | 0.00 | 0.00 | 41 | 1007.0 |
| 20260510195906 | 19 | 265 | 3.2 | 3.2 | 0.00 | 0.00 | 0.00 | 40 | 1007.0 |
| 20260510195404 | 19 | 252 | 11.3 | 11.3 | 0.00 | 0.00 | 0.00 | 42 | 1007.0 |
| 20260510194858 | 18 | 253 | 4.8 | 6.4 | 0.00 | 0.00 | 0.00 | 40 | 1007.0 |
| 20260510194355 | 19 | 260 | 8.0 | 9.7 | 0.00 | 0.00 | 0.00 | 40 | 1007.0 |
| 20260510193850 | 19 | 266 | 9.7 | 9.7 | 0.00 | 0.00 | 0.00 | 41 | 1007.0 |
| 20260510193345 | 18 | 265 | 9.7 | 9.7 | 0.00 | 0.00 | 0.00 | 41 | 1007.0 |
| 20260510192841 | 18 | 120 | 3.2 | 3.2 | 0.00 | 0.00 | 0.00 | 41 | 1007.0 |
| 20260510192337 | 20 | 12 | 0.0 | 0.0 | 0.00 | 0.00 | 0.00 | 43 | 1006.7 |
| 20260510191833 | 19 | 246 | 1.6 | 1.6 | 0.00 | 0.00 | 0.00 | 40 | 1007.0 |
| 20260510191329 | 19 | 256 | 8.0 | 9.7 | 0.00 | 0.00 | 0.00 | 40 | 1007.0 |
| 20260510190827 | 18 | 259 | 9.7 | 9.7 | 0.00 | 0.00 | 0.00 | 40 | 1007.0 |
| 20260510190324 | 19 | 258 | 12.9 | 14.5 | 0.00 | 0.00 | 0.00 | 40 | 1007.0 |
| 20260510185815 | 19 | 260 | 3.2 | 3.2 | 0.00 | 0.00 | 0.00 | 41 | 1007.0 |
| 20260510185313 | 18 | 255 | 8.0 | 8.0 | 0.00 | 0.00 | 0.00 | 41 | 1007.0 |
| 20260510184810 | 18 | 255 | 8.0 | 8.0 | 0.00 | 0.00 | 0.00 | 41 | 1007.0 |
| 20260510184306 | 18 | 258 | 6.4 | 6.4 | 0.00 | 0.00 | 0.00 | 41 | 1006.7 |
| 20260510183801 | 18 | 253 | 9.7 | 9.7 | 0.00 | 0.00 | 0.00 | 42 | 1007.0 |
| 20260510183256 | 18 | 252 | 4.8 | 6.4 | 0.00 | 0.00 | 0.00 | 44 | 1007.0 |
| 20260510182752 | 19 | 256 | 9.7 | 9.7 | 0.00 | 0.00 | 0.00 | 42 | 1006.7 |
| 20260510182249 | 18 | 258 | 4.8 | 4.8 | 0.00 | 0.00 | 0.00 | 43 | 1007.0 |
| 20260510181746 | 18 | 255 | 11.3 | 12.9 | 0.00 | 0.00 | 0.00 | 42 | 1007.0 |
| 20260510181243 | 18 | 276 | 6.4 | 6.4 | 0.00 | 0.00 | 0.00 | 43 | 1007.0 |
| 20260510180739 | 18 | 102 | 8.0 | 8.0 | 0.00 | 0.00 | 0.00 | 44 | 1007.0 |
| 20260510180236 | 18 | 269 | 6.4 | 6.4 | 0.00 | 0.00 | 0.00 | 43 | 1007.0 |
| 20260510175733 | 18 | 252 | 4.8 | 4.8 | 0.00 | 0.00 | 0.00 | 44 | 1007.0 |
| 20260510175228 | 17 | 259 | 1.6 | 1.6 | 0.00 | 0.00 | 0.00 | 44 | 1006.7 |
| 20260510174726 | 18 | 96 | 9.7 | 9.7 | 0.00 | 0.00 | 0.00 | 44 | 1006.7 |
| 20260510174223 | 18 | 170 | 3.2 | 3.2 | 0.00 | 0.00 | 0.00 | 43 | 1006.7 |
| 20260510173719 | 18 | 146 | 1.6 | 1.6 | 0.00 | 0.00 | 0.00 | 44 | 1006.7 |
| 20260510173215 | 18 | 257 | 3.2 | 3.2 | 0.00 | 0.00 | 0.00 | 44 | 1007.0 |
| 20260510172710 | 18 | 254 | 9.7 | 9.7 | 0.00 | 0.00 | 0.00 | 43 | 1007.0 |
| 20260510172207 | 18 | 102 | 4.8 | 6.4 | 0.00 | 0.00 | 0.00 | 43 | 1007.0 |
| 20260510171703 | 18 | 270 | 11.3 | 11.3 | 0.00 | 0.00 | 0.00 | 41 | 1006.7 |
| 20260510171201 | 18 | 101 | 4.8 | 4.8 | 0.00 | 0.00 | 0.00 | 42 | 1006.7 |
| 20260510170658 | 17 | 252 | 6.4 | 6.4 | 0.00 | 0.00 | 0.00 | 42 | 1006.7 |
| 20260510170154 | 17 | 112 | 3.2 | 3.2 | 0.00 | 0.00 | 0.00 | 42 | 1006.7 |
| 20260510165650 | 18 | 120 | 8.0 | 8.0 | 0.00 | 0.00 | 0.00 | 43 | 1006.7 |
| 20260510165146 | 18 | 258 | 4.8 | 4.8 | 0.00 | 0.00 | 0.00 | 42 | 1007.0 |
| 20260510164644 | 18 | 113 | 4.8 | 4.8 | 0.00 | 0.00 | 0.00 | 43 | 1007.0 |
| 20260510164141 | 17 | 252 | 4.8 | 4.8 | 0.00 | 0.00 | 0.00 | 44 | 1006.7 |
| 20260510163636 | 17 | 261 | 11.3 | 11.3 | 0.00 | 0.00 | 0.00 | 44 | 1007.0 |
| 20260510163131 | 17 | 254 | 12.9 | 12.9 | 0.00 | 0.00 | 0.00 | 44 | 1007.0 |
| 20260510162626 | 17 | 269 | 8.0 | 8.0 | 0.00 | 0.00 | 0.00 | 45 | 1007.0 |
| 20260510162123 | 17 | 265 | 3.2 | 3.2 | 0.00 | 0.00 | 0.00 | 45 | 1007.0 |
| 20260510161619 | 17 | 114 | 0.0 | 0.0 | 0.00 | 0.00 | 0.00 | 49 | 1006.7 |
| 20260510161116 | 17 | 120 | 3.2 | 3.2 | 0.00 | 0.00 | 0.00 | 48 | 1007.0 |
| 20260510160613 | 17 | 266 | 11.3 | 11.3 | 0.00 | 0.00 | 0.00 | 47 | 1006.7 |
| 20260510160113 | 17 | 260 | 1.6 | 1.6 | 0.00 | 0.00 | 0.00 | 45 | 1006.7 |
| 20260510155609 | 16 | 107 | 8.0 | 8.0 | 0.00 | 0.00 | 0.00 | 50 | 1006.7 |
| 20260510155106 | 16 | 108 | 0.0 | 0.0 | 0.00 | 0.00 | 0.00 | 51 | 1006.7 |
| 20260510154601 | 16 | 108 | 3.2 | 3.2 | 0.00 | 0.00 | 0.00 | 51 | 1006.7 |
| 20260510154056 | 16 | 96 | 1.6 | 1.6 | 0.00 | 0.00 | 0.00 | 52 | 1006.7 |
| 20260510153552 | 16 | 96 | 1.6 | 1.6 | 0.00 | 0.00 | 0.00 | 52 | 1006.7 |
| 20260510153049 | 16 | 255 | 9.7 | 9.7 | 0.00 | 0.00 | 0.00 | 52 | 1006.7 |
| 20260510152545 | 16 | 270 | 3.2 | 3.2 | 0.00 | 0.00 | 0.00 | 52 | 1006.3 |
| 20260510152042 | 16 | 270 | 8.0 | 8.0 | 0.00 | 0.00 | 0.00 | 53 | 1006.3 |
| 20260510151538 | 16 | 230 | 3.2 | 3.2 | 0.00 | 0.00 | 0.00 | 52 | 1005.9 |
| 20260510151036 | 16 | 108 | 8.0 | 9.7 | 0.00 | 0.00 | 0.00 | 53 | 1005.9 |
| 20260510150531 | 16 | 234 | 4.8 | 4.8 | 0.00 | 0.00 | 0.00 | 54 | 1005.9 |
| 20260510150027 | 16 | 159 | 4.8 | 4.8 | 0.00 | 0.00 | 0.00 | 55 | 1005.9 |
| 20260510145524 | 15 | 216 | 4.8 | 4.8 | 0.00 | 0.00 | 0.00 | 56 | 1005.9 |
| 20260510145021 | 15 | 91 | 3.2 | 3.2 | 0.00 | 0.00 | 0.00 | 55 | 1005.9 |
| 20260510144517 | 15 | 112 | 6.4 | 8.0 | 0.00 | 0.00 | 0.00 | 57 | 1005.5 |
| 20260510144013 | 15 | 102 | 8.0 | 8.0 | 0.00 | 0.00 | 0.00 | 57 | 1005.5 |
| 20260510143509 | 15 | 111 | 6.4 | 6.4 | 0.00 | 0.00 | 0.00 | 57 | 1005.5 |
| 20260510143006 | 15 | 202 | 4.8 | 4.8 | 0.00 | 0.00 | 0.00 | 56 | 1005.2 |
| 20260510142502 | 15 | 252 | 3.2 | 3.2 | 0.00 | 0.00 | 0.00 | 58 | 1005.2 |
| 20260510141959 | 15 | 96 | 9.7 | 9.7 | 0.00 | 0.00 | 0.00 | 56 | 1005.2 |
| 20260510141455 | 15 | 96 | 6.4 | 6.4 | 0.00 | 0.00 | 0.00 | 58 | 1005.2 |
| 20260510140953 | 14 | 96 | 6.4 | 6.4 | 0.00 | 0.00 | 0.00 | 59 | 1005.2 |
| 20260510140449 | 14 | 112 | 4.8 | 4.8 | 0.00 | 0.00 | 0.00 | 59 | 1005.2 |
| 20260510135948 | 14 | 101 | 9.7 | 9.7 | 0.00 | 0.00 | 0.00 | 60 | 1005.2 |
| 20260510135444 | 14 | 260 | 3.2 | 3.2 | 0.00 | 0.00 | 0.00 | 61 | 1005.2 |
| 20260510134941 | 14 | 96 | 8.0 | 9.7 | 0.00 | 0.00 | 0.00 | 61 | 1005.2 |
| 20260510134438 | 14 | 105 | 4.8 | 4.8 | 0.00 | 0.00 | 0.00 | 64 | 1005.2 |
| 20260510133935 | 14 | 108 | 3.2 | 3.2 | 0.00 | 0.00 | 0.00 | 64 | 1004.9 |
| 20260510133431 | 14 | 108 | 3.2 | 3.2 | 0.00 | 0.00 | 0.00 | 64 | 1005.2 |
| 20260510132926 | 14 | 96 | 3.2 | 3.2 | 0.00 | 0.00 | 0.00 | 64 | 1005.2 |
| 20260510132424 | 14 | 112 | 3.2 | 3.2 | 0.00 | 0.00 | 0.00 | 65 | 1005.2 |
| 20260510131921 | 14 | 228 | 6.4 | 6.4 | 0.00 | 0.00 | 0.00 | 64 | 1005.2 |
| 20260510131418 | 13 | 126 | 3.2 | 3.2 | 0.00 | 0.00 | 0.00 | 68 | 1004.5 |
| 20260510130914 | 13 | 126 | 3.2 | 3.2 | 0.00 | 0.00 | 0.00 | 69 | 1004.9 |
| 20260510130406 | 13 | 108 | 3.2 | 3.2 | 0.00 | 0.00 | 0.00 | 69 | 1004.9 |
| 20260510125903 | 13 | 114 | 1.6 | 1.6 | 0.00 | 0.00 | 0.00 | 70 | 1004.9 |
| 20260510125359 | 13 | 118 | 3.2 | 3.2 | 0.00 | 0.00 | 0.00 | 71 | 1004.9 |
| 20260510124856 | 13 | 114 | 3.2 | 3.2 | 0.00 | 0.00 | 0.00 | 72 | 1004.5 |
| 20260510124353 | 13 | 258 | 4.8 | 4.8 | 0.00 | 0.00 | 0.00 | 73 | 1004.5 |
| 20260510123849 | 13 | 118 | 3.2 | 3.2 | 0.00 | 0.00 | 0.00 | 70 | 1004.5 |
| 20260510123344 | 13 | 96 | 3.2 | 3.2 | 0.00 | 0.00 | 0.00 | 71 | 1004.2 |
| 20260510122841 | 13 | 108 | 3.2 | 3.2 | 0.00 | 0.00 | 0.00 | 74 | 1004.2 |
| 20260510122336 | 13 | 108 | 0.0 | 0.0 | 0.00 | 0.00 | 0.00 | 75 | 1004.5 |
| 20260510121833 | 13 | 120 | 0.0 | 0.0 | 0.00 | 0.00 | 0.00 | 75 | 1004.5 |
| 20260510121331 | 13 | 114 | 3.2 | 3.2 | 0.00 | 0.00 | 0.00 | 74 | 1004.2 |
| 20260510120828 | 13 | 120 | 3.2 | 3.2 | 0.00 | 0.00 | 0.00 | 74 | 1004.2 |
| 20260510120325 | 13 | 108 | 3.2 | 3.2 | 0.00 | 0.00 | 0.00 | 72 | 1004.2 |
| 20260510115820 | 13 | 108 | 3.2 | 3.2 | 0.00 | 0.00 | 0.00 | 73 | 1004.2 |
| 20260510115318 | 13 | 102 | 3.2 | 3.2 | 0.00 | 0.00 | 0.00 | 75 | 1003.8 |
| 20260510114813 | 13 | 168 | 1.6 | 1.6 | 0.00 | 0.00 | 0.00 | 76 | 1003.8 |
| 20260510114311 | 13 | 255 | 3.2 | 3.2 | 0.00 | 0.00 | 0.00 | 76 | 1003.8 |
| 20260510113805 | 13 | 197 | 3.2 | 3.2 | 0.00 | 0.00 | 0.00 | 76 | 1003.5 |
| 20260510113303 | 13 | 120 | 3.2 | 3.2 | 0.00 | 0.00 | 0.00 | 75 | 1003.5 |
| 20260510112759 | 13 | 265 | 3.2 | 3.2 | 0.00 | 0.00 | 0.00 | 75 | 1003.5 |
| 20260510112256 | 13 | 106 | 3.2 | 3.2 | 0.00 | 0.00 | 0.00 | 74 | 1003.2 |
| 20260510111752 | 13 | 294 | 0.0 | 0.0 | 0.00 | 0.00 | 0.00 | 73 | 1003.5 |
| 20260510111249 | 13 | 258 | 8.0 | 8.0 | 0.00 | 0.00 | 0.00 | 73 | 1003.5 |
| 20260510110748 | 13 | 270 | 3.2 | 3.2 | 0.00 | 0.00 | 0.00 | 73 | 1003.5 |
| 20260510110247 | 13 | 267 | 1.6 | 1.6 | 0.00 | 0.00 | 0.00 | 75 | 1003.2 |
| 20260510105747 | 13 | 267 | 3.2 | 3.2 | 0.00 | 0.00 | 0.00 | 75 | 1003.5 |
| 20260510105241 | 13 | 270 | 3.2 | 3.2 | 0.00 | 0.00 | 0.00 | 76 | 1002.8 |
| 20260510104738 | 13 | 270 | 4.8 | 4.8 | 0.00 | 0.00 | 0.00 | 77 | 1002.8 |
| 20260510104236 | 13 | 270 | 3.2 | 3.2 | 0.00 | 0.00 | 0.00 | 77 | 1002.8 |
| 20260510103731 | 14 | 270 | 4.8 | 4.8 | 0.00 | 0.00 | 0.00 | 76 | 1002.8 |
| 20260510103229 | 13 | 270 | 4.8 | 6.4 | 0.00 | 0.00 | 0.00 | 76 | 1002.5 |
| 20260510102723 | 13 | 270 | 3.2 | 3.2 | 0.00 | 0.00 | 0.00 | 76 | 1002.5 |
| 20260510102219 | 13 | 270 | 3.2 | 3.2 | 0.00 | 0.00 | 0.00 | 77 | 1002.1 |
| 20260510101717 | 13 | 270 | 3.2 | 3.2 | 0.00 | 0.00 | 0.00 | 77 | 1002.1 |
| 20260510101215 | 13 | 270 | 3.2 | 3.2 | 0.00 | 0.00 | 0.00 | 78 | 1001.8 |
| 20260510100710 | 13 | 270 | 3.2 | 3.2 | 0.00 | 0.00 | 0.00 | 80 | 1002.1 |
| 20260510100209 | 13 | 270 | 0.0 | 0.0 | 0.00 | 0.00 | 0.00 | 81 | 1001.8 |
| 20260510095704 | 13 | 270 | 3.2 | 3.2 | 0.00 | 0.00 | 0.00 | 83 | 1001.8 |
| 20260510095159 | 13 | 270 | 3.2 | 3.2 | 0.00 | 0.00 | 0.00 | 86 | 1001.8 |
| 20260510094658 | 12 | 270 | 0.0 | 0.0 | 0.00 | 0.00 | 0.00 | 91 | 1001.8 |
| 20260510094154 | 12 | 270 | 0.0 | 0.0 | 0.00 | 0.00 | 0.00 | 91 | 1001.8 |
| 20260510093650 | 12 | 270 | 0.0 | 0.0 | 0.00 | 0.00 | 0.00 | 90 | 1001.5 |
| 20260510093148 | 13 | 270 | 0.0 | 0.0 | 0.00 | 0.00 | 0.00 | 90 | 1001.8 |
| 20260510092644 | 13 | 270 | 0.0 | 0.0 | 0.00 | 0.00 | 0.00 | 90 | 1001.5 |
| 20260510092139 | 13 | 270 | 0.0 | 0.0 | 0.00 | 0.00 | 0.00 | 90 | 1001.1 |
| 20260510091635 | 13 | 270 | 0.0 | 0.0 | 0.00 | 0.00 | 0.00 | 89 | 1001.5 |
| 20260510091132 | 13 | 270 | 0.0 | 0.0 | 0.00 | 0.00 | 0.00 | 87 | 1001.1 |
| 20260510090629 | 13 | 270 | 0.0 | 0.0 | 0.00 | 0.00 | 0.00 | 87 | 1000.8 |
| 20260510090125 | 13 | 270 | 3.2 | 3.2 | 0.00 | 0.00 | 0.00 | 87 | 1000.8 |
| 20260510085620 | 13 | 271 | 3.2 | 3.2 | 0.00 | 0.00 | 0.00 | 86 | 1000.8 |
| 20260510085116 | 13 | 271 | 3.2 | 3.2 | 0.00 | 0.00 | 0.00 | 87 | 1000.8 |
| 20260510084612 | 14 | 271 | 0.0 | 0.0 | 0.00 | 0.00 | 0.00 | 86 | 1000.5 |
| 20260510084109 | 14 | 271 | 0.0 | 0.0 | 0.00 | 0.00 | 0.00 | 85 | 1000.5 |
| 20260510083606 | 15 | 271 | 1.6 | 1.6 | 0.00 | 0.00 | 0.00 | 84 | 1000.5 |
| 20260510083102 | 14 | 271 | 3.2 | 3.2 | 0.00 | 0.00 | 0.00 | 84 | 1000.5 |
| 20260510082559 | 14 | 271 | 3.2 | 3.2 | 0.00 | 0.00 | 0.00 | 85 | 1000.5 |
| 20260510082054 | 14 | 270 | 3.2 | 3.2 | 0.00 | 0.00 | 0.00 | 86 | 1000.5 |
| 20260510081549 | 14 | 270 | 0.0 | 0.0 | 0.00 | 0.00 | 0.00 | 85 | 1000.1 |
| 20260510081045 | 15 | 270 | 0.0 | 0.0 | 0.00 | 0.00 | 0.00 | 83 | 1000.1 |
| 20260510080544 | 15 | 270 | 0.0 | 0.0 | 0.00 | 0.00 | 0.00 | 83 | 1000.1 |
| 20260510080042 | 14 | 270 | 0.0 | 0.0 | 0.00 | 0.00 | 0.00 | 86 | 1000.1 |
| 20260510075539 | 14 | 270 | 0.0 | 0.0 | 0.00 | 0.00 | 0.00 | 86 | 999.8 |
| 20260510075036 | 15 | 270 | 0.0 | 0.0 | 0.00 | 0.00 | 0.00 | 85 | 999.8 |
| 20260510074533 | 15 | 270 | 0.0 | 0.0 | 0.00 | 0.00 | 0.00 | 82 | 999.8 |
| 20260510074028 | 15 | 270 | 0.0 | 0.0 | 0.00 | 0.00 | 0.00 | 81 | 1000.1 |
| 20260510073524 | 16 | 270 | 3.2 | 3.2 | 0.00 | 0.00 | 0.00 | 81 | 999.8 |
| 20260510073022 | 15 | 271 | 4.8 | 4.8 | 0.00 | 0.00 | 0.00 | 81 | 1000.1 |
| 20260510072519 | 15 | 271 | 3.2 | 3.2 | 0.00 | 0.00 | 0.00 | 81 | 1000.1 |
| 20260510072014 | 16 | 271 | 0.0 | 0.0 | 0.00 | 0.00 | 0.00 | 82 | 1000.1 |
| 20260510071510 | 16 | 265 | 3.2 | 3.2 | 0.00 | 0.00 | 0.00 | 82 | 1000.1 |
| 20260510071009 | 16 | 264 | 3.2 | 3.2 | 0.00 | 0.00 | 0.00 | 82 | 1000.5 |
| 20260510070505 | 15 | 265 | 4.8 | 4.8 | 0.00 | 0.00 | 0.00 | 82 | 1000.1 |
| 20260510070002 | 15 | 265 | 3.2 | 3.2 | 0.00 | 0.00 | 0.00 | 82 | 1000.1 |
| 20260510065458 | 16 | 270 | 0.0 | 0.0 | 0.00 | 0.00 | 0.00 | 83 | 1000.1 |
| 20260510064954 | 16 | 270 | 0.0 | 0.0 | 0.00 | 0.00 | 0.00 | 82 | 1000.1 |
| 20260510064451 | 16 | 270 | 3.2 | 3.2 | 0.00 | 0.00 | 0.00 | 82 | 1000.1 |
| 20260510063948 | 16 | 270 | 3.2 | 3.2 | 0.00 | 0.00 | 0.00 | 81 | 1000.1 |
| 20260510063444 | 16 | 270 | 3.2 | 3.2 | 0.00 | 0.00 | 0.00 | 81 | 1000.1 |
| 20260510062942 | 16 | 270 | 3.2 | 3.2 | 0.00 | 0.00 | 0.00 | 80 | 1000.1 |
| 20260510062437 | 16 | 270 | 0.0 | 0.0 | 0.00 | 0.00 | 0.00 | 80 | 1000.1 |
| 20260510061932 | 16 | 270 | 0.0 | 0.0 | 0.00 | 0.00 | 0.00 | 79 | 1000.5 |
| 20260510061430 | 16 | 270 | 3.2 | 3.2 | 0.00 | 0.00 | 0.00 | 79 | 1000.8 |
| 20260510060925 | 16 | 270 | 3.2 | 3.2 | 0.00 | 0.00 | 0.00 | 79 | 1000.5 |
| 20260510060423 | 16 | 276 | 3.2 | 3.2 | 0.00 | 0.00 | 0.00 | 79 | 1000.5 |
| 20260510055919 | 16 | 300 | 3.2 | 3.2 | 0.00 | 0.00 | 0.00 | 79 | 1000.5 |
| 20260510055414 | 16 | 187 | 3.2 | 3.2 | 0.00 | 0.00 | 0.00 | 79 | 1000.5 |
| 20260510054907 | 16 | 271 | 3.2 | 3.2 | 0.00 | 0.00 | 0.00 | 78 | 1000.5 |
| 20260510054403 | 16 | 266 | 3.2 | 3.2 | 0.00 | 0.00 | 0.00 | 78 | 1000.5 |
| 20260510053857 | 16 | 264 | 4.8 | 4.8 | 0.00 | 0.00 | 0.00 | 78 | 1000.1 |
| 20260510053353 | 17 | 260 | 4.8 | 4.8 | 0.00 | 0.00 | 0.00 | 77 | 1000.1 |
| 20260510052850 | 17 | 255 | 8.0 | 9.7 | 0.00 | 0.00 | 0.00 | 77 | 1000.1 |
| 20260510052346 | 17 | 238 | 3.2 | 3.2 | 0.00 | 0.00 | 0.00 | 77 | 1000.1 |
| 20260510051842 | 16 | 258 | 8.0 | 8.0 | 0.00 | 0.00 | 0.00 | 77 | 999.8 |
| 20260510051339 | 16 | 252 | 3.2 | 3.2 | 0.00 | 0.00 | 0.00 | 77 | 1000.1 |
| 20260510050836 | 16 | 270 | 0.0 | 0.0 | 0.00 | 0.00 | 0.00 | 77 | 1000.1 |
| 20260510050332 | 17 | 287 | 3.2 | 3.2 | 0.00 | 0.00 | 0.00 | 76 | 999.8 |
| 20260510045829 | 17 | 264 | 1.6 | 1.6 | 0.00 | 0.00 | 0.00 | 76 | 999.8 |
| 20260510045326 | 17 | 270 | 1.6 | 1.6 | 0.00 | 0.00 | 0.00 | 76 | 999.8 |
| 20260510044823 | 17 | 270 | 4.8 | 4.8 | 0.00 | 0.00 | 0.00 | 76 | 1000.1 |
| 20260510044320 | 17 | 252 | 3.2 | 3.2 | 0.00 | 0.00 | 0.00 | 75 | 999.8 |
| 20260510043816 | 17 | 255 | 3.2 | 3.2 | 0.00 | 0.00 | 0.00 | 75 | 999.8 |
| 20260510043312 | 17 | 276 | 0.0 | 0.0 | 0.00 | 0.00 | 0.00 | 75 | 999.8 |
| 20260510042810 | 17 | 271 | 4.8 | 4.8 | 0.00 | 0.00 | 0.00 | 74 | 999.8 |
| 20260510042307 | 17 | 270 | 1.6 | 1.6 | 0.00 | 0.00 | 0.00 | 74 | 999.8 |
| 20260510041802 | 17 | 312 | 3.2 | 3.2 | 0.00 | 0.00 | 0.00 | 74 | 999.3 |
| 20260510041259 | 16 | 272 | 3.2 | 3.2 | 0.00 | 0.00 | 0.00 | 73 | 999.8 |
| 20260510040756 | 17 | 258 | 1.6 | 1.6 | 0.00 | 0.00 | 0.00 | 73 | 999.8 |
| 20260510040248 | 17 | 276 | 3.2 | 3.2 | 0.00 | 0.00 | 0.00 | 72 | 999.8 |
| 20260510035743 | 17 | 270 | 0.0 | 0.0 | 0.00 | 0.66 | 0.66 | 71 | 999.8 |
| 20260510035239 | 17 | 276 | 3.2 | 3.2 | 0.00 | 0.66 | 0.66 | 71 | 999.3 |
| 20260510034734 | 17 | 270 | 0.0 | 0.0 | 0.00 | 0.66 | 0.66 | 71 | 999.3 |
| 20260510034233 | 17 | 270 | 3.2 | 3.2 | 0.00 | 0.66 | 0.66 | 70 | 999.0 |
| 20260510033729 | 17 | 258 | 3.2 | 3.2 | 0.00 | 0.66 | 0.66 | 69 | 999.0 |
| 20260510033226 | 17 | 265 | 0.0 | 0.0 | 0.00 | 0.66 | 0.66 | 68 | 999.3 |
| 20260510032722 | 17 | 216 | 1.6 | 1.6 | 0.00 | 0.66 | 0.66 | 69 | 999.0 |
| 20260510032218 | 17 | 266 | 0.0 | 0.0 | 0.00 | 0.66 | 0.66 | 68 | 999.3 |
| 20260510031713 | 17 | 276 | 1.6 | 1.6 | 0.00 | 0.66 | 0.66 | 67 | 999.3 |
| 20260510031210 | 17 | 241 | 0.0 | 0.0 | 0.00 | 0.66 | 0.66 | 67 | 999.3 |
| 20260510030709 | 17 | 234 | 1.6 | 1.6 | 0.00 | 0.66 | 0.66 | 68 | 999.3 |
| 20260510030207 | 17 | 234 | 0.0 | 0.0 | 0.00 | 0.66 | 0.66 | 67 | 999.0 |
| 20260510025704 | 17 | 234 | 0.0 | 0.0 | 0.00 | 0.66 | 0.66 | 67 | 999.3 |
| 20260510025201 | 17 | 234 | 1.6 | 1.6 | 0.00 | 0.66 | 0.66 | 67 | 999.3 |
| 20260510024659 | 17 | 258 | 3.2 | 3.2 | 0.00 | 0.66 | 0.66 | 66 | 999.3 |
| 20260510024155 | 17 | 258 | 3.2 | 3.2 | 0.00 | 0.66 | 0.66 | 66 | 999.3 |
| 20260510023650 | 17 | 234 | 3.2 | 3.2 | 0.00 | 0.66 | 0.66 | 67 | 999.0 |
| 20260510023148 | 17 | 270 | 0.0 | 0.0 | 0.00 | 0.66 | 0.66 | 68 | 999.0 |
| 20260510022644 | 17 | 271 | 1.6 | 1.6 | 0.00 | 0.66 | 0.66 | 67 | 999.0 |
| 20260510022138 | 17 | 265 | 0.0 | 0.0 | 0.00 | 0.66 | 0.66 | 67 | 999.0 |
| 20260510021628 | 17 | 265 | 0.0 | 0.0 | 0.00 | 0.66 | 0.66 | 68 | 998.7 |
| 20260510021126 | 17 | 265 | 0.0 | 0.0 | 0.00 | 0.66 | 0.66 | 68 | 999.0 |
| 20260510020620 | 17 | 265 | 1.6 | 1.6 | 0.00 | 0.66 | 0.66 | 69 | 998.7 |
| 20260510020116 | 17 | 265 | 0.0 | 0.0 | 0.00 | 0.66 | 0.66 | 68 | 998.7 |
| 20260510015612 | 17 | 265 | 1.6 | 1.6 | 0.00 | 0.66 | 0.66 | 69 | 998.3 |
| 20260510015108 | 17 | 265 | 0.0 | 0.0 | 0.00 | 0.66 | 0.66 | 69 | 998.7 |
| 20260510014604 | 17 | 267 | 0.0 | 0.0 | 0.00 | 0.66 | 0.66 | 69 | 998.3 |
| 20260510014101 | 17 | 267 | 0.0 | 0.0 | 0.00 | 0.66 | 0.66 | 68 | 998.3 |
| 20260510013555 | 17 | 267 | 0.0 | 0.0 | 0.00 | 0.66 | 0.66 | 69 | 998.3 |
| 20260510013052 | 17 | 267 | 0.0 | 0.0 | 0.00 | 0.66 | 0.66 | 68 | 998.0 |
| 20260510012546 | 17 | 267 | 0.0 | 0.0 | 0.00 | 0.66 | 0.66 | 67 | 998.3 |
| 20260510012042 | 17 | 267 | 0.0 | 0.0 | 0.00 | 0.66 | 0.66 | 68 | 998.3 |
| 20260510011542 | 17 | 267 | 0.0 | 0.0 | 0.00 | 0.66 | 0.66 | 67 | 998.0 |
| 20260510011038 | 17 | 267 | 0.0 | 0.0 | 0.00 | 0.66 | 0.66 | 67 | 998.0 |
| 20260510010535 | 18 | 267 | 0.0 | 0.0 | 0.00 | 0.66 | 0.66 | 66 | 998.0 |
| 20260510010032 | 18 | 266 | 0.0 | 0.0 | 0.00 | 0.66 | 0.66 | 66 | 998.3 |
| 20260510005527 | 18 | 266 | 0.0 | 0.0 | 0.00 | 0.66 | 0.66 | 64 | 998.0 |
| 20260510005026 | 18 | 266 | 0.0 | 0.0 | 0.00 | 0.66 | 0.66 | 62 | 998.0 |
| 20260510004522 | 19 | 266 | 0.0 | 0.0 | 0.00 | 0.66 | 0.66 | 61 | 997.6 |
| 20260510004020 | 19 | 266 | 0.0 | 0.0 | 0.00 | 0.66 | 0.66 | 60 | 997.6 |
| 20260510003516 | 20 | 266 | 0.0 | 0.0 | 0.00 | 0.66 | 0.66 | 58 | 998.0 |
| 20260510003012 | 20 | 258 | 1.6 | 1.6 | 0.00 | 0.66 | 0.66 | 57 | 998.0 |
| 20260510002508 | 20 | 228 | 3.2 | 3.2 | 0.00 | 0.66 | 0.66 | 56 | 997.6 |
| 20260510002005 | 20 | 267 | 1.6 | 1.6 | 0.00 | 0.66 | 0.66 | 56 | 997.6 |
| 20260510001502 | 21 | 216 | 1.6 | 1.6 | 0.00 | 0.66 | 0.66 | 55 | 997.6 |
| 20260510001000 | 21 | 266 | 3.2 | 3.2 | 0.00 | 0.66 | 0.66 | 54 | 997.3 |
| 20260510000455 | 21 | 265 | 3.2 | 3.2 | 0.00 | 0.66 | 0.66 | 54 | 997.3 |
| 20260509235952 | 21 | 272 | 3.2 | 3.2 | 0.00 | 0.66 | 0.66 | 52 | 997.3 |
| 20260509235449 | 22 | 250 | 4.8 | 4.8 | 0.00 | 0.66 | 0.66 | 52 | 997.3 |
| 20260509234945 | 22 | 268 | 4.8 | 6.4 | 0.00 | 0.66 | 0.66 | 52 | 997.3 |
| 20260509234442 | 22 | 96 | 3.2 | 3.2 | 0.00 | 0.66 | 0.66 | 51 | 997.3 |
| 20260509233940 | 22 | 253 | 4.8 | 4.8 | 0.00 | 0.66 | 0.66 | 50 | 997.3 |
| 20260509233437 | 22 | 312 | 9.7 | 11.3 | 0.00 | 0.66 | 0.66 | 49 | 997.0 |
| 20260509232933 | 22 | 312 | 9.7 | 11.3 | 0.00 | 0.66 | 0.66 | 49 | 997.0 |
| 20260509232431 | 23 | 264 | 1.6 | 1.6 | 0.00 | 0.66 | 0.66 | 50 | 997.0 |
| 20260509231926 | 22 | 256 | 6.4 | 6.4 | 0.00 | 0.66 | 0.66 | 49 | 997.0 |
| 20260509231424 | 22 | 195 | 6.4 | 8.0 | 0.00 | 0.66 | 0.66 | 50 | 997.0 |
| 20260509230922 | 23 | 250 | 9.7 | 9.7 | 0.00 | 0.66 | 0.66 | 49 | 997.0 |
| 20260509230418 | 23 | 258 | 4.8 | 4.8 | 0.00 | 0.66 | 0.66 | 51 | 997.0 |
| 20260509225914 | 23 | 264 | 9.7 | 9.7 | 0.00 | 0.66 | 0.66 | 50 | 997.0 |
| 20260509225411 | 23 | 256 | 4.8 | 4.8 | 0.00 | 0.66 | 0.66 | 50 | 997.0 |
| 20260509224907 | 23 | 233 | 8.0 | 8.0 | 0.00 | 0.66 | 0.66 | 49 | 997.0 |
| 20260509224402 | 23 | 252 | 3.2 | 3.2 | 0.00 | 0.66 | 0.66 | 49 | 997.0 |
| 20260509223900 | 23 | 263 | 9.7 | 9.7 | 0.00 | 0.66 | 0.66 | 49 | 997.0 |
| 20260509223351 | 22 | 256 | 8.0 | 8.0 | 0.00 | 0.66 | 0.66 | 49 | 997.0 |
| 20260509222848 | 23 | 320 | 3.2 | 3.2 | 0.00 | 0.66 | 0.66 | 49 | 997.0 |
| 20260509222343 | 23 | 263 | 4.8 | 4.8 | 0.00 | 0.66 | 0.66 | 51 | 997.0 |
| 20260509221839 | 23 | 276 | 6.4 | 8.0 | 0.00 | 0.66 | 0.66 | 48 | 997.0 |
| 20260509221336 | 23 | 246 | 3.2 | 3.2 | 0.00 | 0.66 | 0.66 | 51 | 997.0 |